sat.trackr.live / text

‹ back to catalog

STARLINK-2492

NORAD 48149 · 2021-027BK

PAYLOAD ACTIVE UNKNOWN

§ Identity

Operator
Country
US
Launch date
2021-04-07
Launch site
AFETR
Launch vehicle
Mass (kg)
RCS (m²)

Purposes: comms

External: N2YO · Heavens-Above · Gunter

§ Orbital elements

Epoch: 2026-09-11T14:52:52.687200Z

Period
94.01 min
Inclination
53.1603°
Eccentricity
0.0001242
Mean motion
15.31696126 rev/d
Perigee alt
469.9 km
Apogee alt
471.6 km
Semi-major
6,848.9 km
B*
7.1670e-5
RAAN
7.6764°
Arg perigee
92.8127°
Mean anomaly
267.3017°
Rev number
30,116

§ Raw data

STARLINK-24921 48149U 21027BK  26254.62005425  .00001859  00000+0  71670-4 0  99982 48149  53.1603   7.6764 0001242  92.8127 267.3017 15.31696126301161

JSON: /api/v1/satellites/48149 · /tle

For live sub-satellite position, see the globe view (requires WebGL).

§ Visibility from observer

Set your observer location to see the next 7 days of passes ≥ 10°. The values pass through the URL so the page stays shareable.

No JS? Fill the form by hand. The geolocation button needs JavaScript.